Home   Weather   Dammam   Past weeks
Flag for Saudi Arabia

Past Weather in Dammam, Saudi Arabia — Yesterday and Last 2 Weeks

Now
84 °F

Clear.


Feels Like: 91 °F
Forecast: 102 / 79 °F
Wind: 6 mph from Southwest

Location: Dhahran

Current Time: Sep 20, 2019 at 11:37:08 pm

Latest Report: Sep 20, 2019 at 11:00 pm


Visibility: 10 mi

Pressure: 29.62 "Hg

Humidity: 70%

Dew Point: 73 °F

Location of DammamLocation

Past Weather in Dammam — Graph

°F

Dammam Temperature Yesterday

Maximum temperature yesterday: 106 °F (at 12:00 pm)
Minimum temperature yesterday: 81 °F (at 3:00 am)
Average temperature yesterday: 91 °F

High & Low Weather Summary for the Past Weeks

 TemperatureHumidityPressure
High115 °F (Sep 6, 12:00 pm)100% (Sep 16, 4:00 am)29.74 "Hg (Sep 16, 4:00 am)
Low79 °F (Sep 13, 5:00 am)7% (Sep 14, 1:00 pm)29.42 "Hg (Sep 6, 2:00 pm)
Average94 °F37%29.60 "Hg
* Reported Sep 5 10:00 pm — Sep 20 10:00 pm, Dammam. Weather by CustomWeather, © 2019

Note: Actual official high and low records may vary slightly from our data, if they occured in-between our weather recording intervals... More about our weather records

Advertising

Dammam Weather History for the Previous 24 Hours

Scroll right to see more
 ConditionsComfort  
Time TempWeatherWind HumidityBarometerVisibility
10:00 pm
Fri, Sep 20
88 °FClear.6 mph66%29.65 "Hg10 mi
9:00 pm90 °FClear.6 mph63%29.65 "Hg10 mi
8:00 pm91 °FClear.6 mph71%29.65 "Hg10 mi
7:00 pm95 °FClear.8 mph50%29.65 "Hg10 mi
6:00 pm99 °FClear.12 mph27%29.62 "Hg10 mi
5:00 pm102 °FSunny.15 mph18%29.62 "Hg10 mi
4:00 pm104 °FSunny.15 mph20%29.62 "Hg10 mi
3:00 pm106 °FSunny.14 mph10%29.62 "Hg10 mi
2:00 pm108 °FSunny.12 mph10%29.62 "Hg10 mi
1:00 pm108 °FSunny.12 mph11%29.65 "Hg10 mi
12:00 pm108 °FSunny.14 mph13%29.68 "Hg10 mi
11:00 am106 °FSunny.14 mph14%29.68 "Hg10 mi
10:00 am102 °FSunny.14 mph18%29.71 "Hg10 mi
9:00 am97 °FSunny.12 mph30%29.71 "Hg10 mi
8:00 am91 °FSunny.12 mph38%29.71 "Hg5 mi
7:00 am84 °FSunny.6 mph55%29.71 "Hg5 mi
6:00 am81 °FSunny.7 mph70%29.68 "Hg5 mi
5:00 am81 °FClear.6 mph79%29.68 "Hg5 mi
4:00 am82 °FClear.7 mph79%29.68 "Hg4 mi
3:00 am84 °FClear.5 mph74%29.65 "Hg4 mi
2:00 am84 °FClear.7 mph74%29.65 "Hg5 mi
1:00 am86 °FClear.6 mph75%29.68 "Hg5 mi
12:00 am88 °FClear.3 mph75%29.68 "Hg5 mi
11:00 pm
Thu, Sep 19
88 °FClear.3 mph70%29.68 "Hg10 mi
Weather by CustomWeather, © 2019

See weather overview